Regional Weather Roundup
Issued by NWS

Home | Current Version | Previous Version | Graphics & Text | Print | Product List | Glossary On
Versions: 1 2 3 4 5 6 7 8 9 10 11 12 13 14 15 16 17 18 19 20 21 22 23 24 25 26 27 28 29 30 31 32 33 34 35 36 37 38 39 40 41 42 43 44 45 46 47 48 49 50
000
ASUS45 KTFX 280119
RWRMT
MONTANA HOURLY WEATHER ROUNDUP
NATIONAL WEATHER SERVICE GREAT FALLS MT
719 PM MDT FRI MAR 27 2015

NOTE: "FAIR" INDICATES FEW OR NO CLOUDS BELOW 12000 FEET WITH NO
SIGNIFICANT WEATHER AND/OR OBSTRUCTIONS TO VISIBILITY.

* THESE STATIONS ARE NOT UNDER NWS QUALITY CONTROL. THEY DO NOT
   REPORT WEATHER SUCH AS PRECIPITATION OR FOG.

MTZ001>007-043-280200-
WEST OF THE DIVIDE
CITY           SKY/WX    TMP DP  RH WIND       PRES   REMARKS
KALISPELL      PTCLDY    66  45  47 SW7       29.91F
MISSOULA       PTCLDY    72  39  30 CALM      29.96F
BUTTE          PTCLDY    64  28  26 W10       30.07S
MULLAN PASS    CLEAR     54  36  51 VRB6      30.06F
* ESSEX        N/A       56  38  51 S2         N/A
* EUREKA APT   MOCLDY    70  41  35 SW9       29.91F
* HAMILTON APT CLEAR     72  36  27 SW5       29.98F
* LIBBY APT    N/A       72  43  35 S5        29.91F
* LINCOLN      N/A       69  34  28 SW6G16     N/A
* LOOKOUT PASS N/A       60  38  44 SE6G14     N/A
* POLSON       N/A       65  44  47 N/A        N/A
* RONAN APT    PTCLDY    72  43  35 S7         N/A
* SEELEY LAKE  N/A       66  38  36 NE2G9      N/A
* THOMP F APT  CLEAR     59  31  35 S6G16      N/A
* YAAK HILL    N/A       74  37  26 SW2        N/A
$$

MTZ008-052>055-280200-
SOUTHWEST MONTANA
CITY           SKY/WX    TMP DP  RH WIND       PRES   REMARKS
BOZEMAN        CLEAR     68  36  31 N8        29.98S
DILLON         PTCLDY    66  27  23 W17       30.05S
* W YELLOWSTON PTCLDY    53  31  43 W2G12      N/A
* THREE FORKS  PTCLDY    73  32  22 NW10       N/A
* TWIN BRIDGES PTCLDY    72  27  19 W16G21     N/A
* BOULDER HILL N/A       63  26  25 SW9        N/A
* HOMESTAKE PS N/A       60  27  28 NW7G12     N/A
* MONIDA PASS  N/A       56  31  39 SE12G18    N/A
* RAYNOLDS PAS N/A       56  35  45 SE12G17    N/A
* WHITEHALL    N/A       76  32  20 W8G17      N/A
* WISE RIVER   N/A       65  31  28 W12G23     N/A
$$

MTZ009>010-012-014-046-048-049-054-280200-
EAST SLOPES AND CENTRAL MONTANA
CITY           SKY/WX    TMP DP  RH WIND       PRES   REMARKS
CUT BANK       CLOUDY    63  36  37 W23G30    29.90F
GREAT FALLS    PTCLDY    61  30  31 SW8       29.93F
HELENA         PTCLDY    73  30  20 W13       29.97R
MALMSTROM AFB  CLEAR     70  28  21 W10G21    29.93F
* DEARBORN     N/A       67  35  31 N1         N/A
* EAST GLACIER N/A       57  36  46 W12G19     N/A
* MONARCH      N/A       62  18  18 NW14G23    N/A
* PENDROY      N/A       63  26  25 W13        N/A
* ROGERS PASS  N/A       61  33  35 E6G12      N/A
* SAINT MARY   N/A       59  33  38 S4G16      N/A
* WHITE SULPH  N/A       65  29  26 NW11G20    N/A
$$

MTZ011-013-016-021-035-040-045-047-050-051-280200-
NORTH CENTRAL MONTANA
CITY           SKY/WX    TMP DP  RH WIND       PRES   REMARKS
HAVRE          PTCLDY    70  30  23 N6        29.86S
LEWISTOWN      CLEAR     68  27  21 NW10      29.95F
* N BAR RANCH  CLEAR     64  25  23 NW13      29.97F
* CHINOOK      MOCLDY    70  34  27 CALM      29.86F
* FORT BENTON  PTCLDY    70  25  18 SW5       29.90S
* MALTA APT    CLOUDY    66  34  31 N/A        N/A
* CHESTER      N/A       67  26  21 NW13G23    N/A
* DENTON       N/A       69  24  18 W12        N/A
* GEYSER       N/A       67  24  20 W15G24     N/A
* JUDITH GAP   N/A       64  22  20 N12        N/A
* LOMA         N/A       72  27  19 NW9G16     N/A
$$

MTZ017>020-022>027-061-062-280200-
NORTHEAST MONTANA
CITY           SKY/WX    TMP DP  RH WIND       PRES   REMARKS
GLASGOW        CLOUDY    63  36  37 W7        29.86F
GLENDIVE       CLOUDY    55  36  49 W9        29.90S
JORDAN         MOCLDY    68  36  31 NE5       29.88F
SIDNEY         CLOUDY    55  37  51 N5        29.88F
WOLF POINT     CLOUDY    63  39  41 NE3       29.86F
* BEAVER HILL  N/A       61  36  39 NW9        N/A
* CIRCLE       N/A       62  39  43 N/A        N/A
* LINDSAY DVD  N/A       56  37  49 NW4        N/A
* NAVAJO       N/A       55  39  55 NE6        N/A
* PLENTYWOOD A MOCLDY    55  39  55 NE5       29.88S
* POPLAR APT   CLOUDY    63  39  41 CALM      29.86F
* SACO         N/A       64  35  34 W4         N/A
$$

MTZ028>042-056>058-280200-
SOUTHCENTRAL AND SOUTHEAST MONTANA
CITY           SKY/WX    TMP DP  RH WIND       PRES   REMARKS
BAKER          MOCLDY    61  36  39 NW10      29.91S
BILLINGS       PTCLDY    72  25  17 NW14      29.94F
LIVINGSTON     PTCLDY    72  30  21 W15       29.98S
MILES CITY     MOCLDY    66  34  31 N9        29.90S
* BIG TIMBER A PTCLDY    70  30  23 W9        29.98F
* FORSYTH APT  PTCLDY    68  28  22 CALM      29.90S
* LAUREL APT   PTCLDY    73  27  18 W14G21     N/A
* ROUNDUP APT  PTCLDY    73  25  17 W14        N/A
* ALZADA       N/A       62  34  35 NW7        N/A
* HYSHAM       N/A       69  26  20 NE2        N/A
* LAME DEER    N/A       62  31  31 N7G12      N/A
* REED POINT   N/A       72  32  23 SW7        N/A
* ROSCOE HILL  N/A       65  15  14 S2         N/A
$$

REGIONAL REPORTS...DAKOTAS
CITY           SKY/WX    TMP DP  RH WIND       PRES   REMARKS
WILLISTON      PTCLDY    54  37  53 N7        29.88S
DICKINSON      CLOUDY    55  36  49 N8        29.88S
BEACH          CLEAR     55  36  49 NE5       29.91R
CROSBY         CLEAR     48  41  77 NE8       29.92R
TIOGA          FAIR      46  39  77 NE6       29.92S
WATFORD CITY   CLEAR     50  36  59 NE7       29.87F
BISMARCK       MOCLDY    45  34  65 NE6       29.91R
GRAND FORKS    CLOUDY    30  21  69 SE14      30.08S WCI  19
FARGO          LGT SNOW  30  21  69 SE9       30.09F WCI  22
BUFFALO SD     MOCLDY    61  34  36 NW14      29.85R
RAPID CITY     PTCLDY    63  36  37 N12       29.92S
$$

REGIONAL REPORTS...WYOMING/IDAHO/WASHINGTON
CITY           SKY/WX    TMP DP  RH WIND       PRES   REMARKS
GILLETTE       MOCLDY    63  34  34 N9        29.98R
SHERIDAN       CLEAR     64  34  33 NW13      29.97S
CODY           PTCLDY    64  28  26 W15G20    30.05S
YELLOWSTONE LA PTCLDY    50  25  38 W5        30.24F
SALMON         CLEAR     70  36  29 CALM      29.99F
MULLAN PASS    CLEAR     54  36  51 VRB6      30.06S
SAND POINT     PTCLDY    63  45  52 CALM      29.91F
SPOKANE        PTCLDY    68  48  49 SW14      29.92F
$$

REGIONAL REPORTS...ALBERTA
CITY           SKY/WX    TMP DP  RH WIND       PRES   REMARKS
CALGARY        FAIR      66  19  16 W15G24    29.75F
LETHBRIDGE     MOCLDY    68  34  28 W24G31    29.81F
MEDICINE HAT   MOCLDY    61  37  41 S2        29.81F
EDMONTON       MOCLDY    54  45  72 SE13      29.67F
WATERTON GATE  N/A       59  36  42 SW10       N/A
CARDSTON       N/A       63  39  41 SW9        N/A
MILK RIVER     N/A       63  36  37 W13        N/A
$$

REGIONAL REPORTS...SASKATCHEWAN
CITY           SKY/WX    TMP DP  RH WIND       PRES   REMARKS
SWIFT CURRENT  CLEAR     55  36  49 E6        29.84R
REGINA         MOCLDY    41  36  82 E10       29.91S
VAL MARIE      N/A       61  36  39 SW5        N/A
ASSINIBOIA     N/A       50  41  71 E9         N/A
CORONACH       N/A       54  39  57 E5         N/A

$$



USA.gov is the U.S. government's official web portal to all federal, state and local government web resources and services.